Regional Weather Roundup
Issued by NWS

Home | Current Version | Previous Version | Graphics & Text | Print | Product List | Glossary On
Versions: 1 2 3 4 5 6 7 8 9 10 11 12 13 14 15 16 17 18 19 20 21 22 23 24 25 26 27 28 29 30 31 32 33 34 35 36 37 38 39 40 41 42 43 44 45 46 47 48 49 50
000
ASUS43 KTOP 250608
RWRKS

WEATHER ROUNDUP FOR KANSAS
NATIONAL WEATHER SERVICE GOODLAND KS
100 AM CDT FRI MAY 25 2018

NOTE:  "FAIR" INDICATES FEW OR NO CLOUDS BELOW 12,000 FEET WITH NO
SIGNIFICANT WEATHER AND/OR OBSTRUCTIONS TO VISIBILITY.

KSZ001>006-013>018-027>032-041>047-250700-
NORTHWEST KANSAS

CITY           SKY/WX    TMP DP  RH WIND       PRES   REMARKS
GOODLAND       CLEAR     60  49  66 W7        30.02S
6HR MIN TEMP:  60; 6HR MAX TEMP:  79;

HAYS           CLOUDY    62  59  90 E8        29.97R
HILL CITY      MOCLDY    60  56  86 SE5       29.98R
6HR MIN TEMP:  58; 6HR MAX TEMP:  85; 6HR PCP:  0.90;

RUSSELL        TSTM      64  61  90 E14       29.94F
6HR MIN TEMP:  62; 6HR MAX TEMP:  85; 6HR PCP:  0.45;

$$

KSZ061>065-074>080-084>089-250700-
SOUTHWEST KANSAS

CITY           SKY/WX    TMP DP  RH WIND       PRES   REMARKS
DODGE CITY     CLOUDY    69  58  67 NW5       29.98S
6HR MIN TEMP:  69; 6HR MAX TEMP:  89; 6HR PCP: TRACE;

ELKHART        PTCLDY    68  64  86 SE8       30.00F
GARDEN CITY    CLOUDY    66  52  60 E7        29.98F
6HR MIN TEMP:  65; 6HR MAX TEMP:  85;

GREAT BEND     TSTM      61  57  88 NE16G32   29.98R
LIBERAL        CLOUDY    73  63  70 S15       29.98F
PRATT          CLOUDY    72  65  79 S12       29.95F
6HR MIN TEMP:  72; 6HR MAX TEMP:  82;

$$

KSZ066>073-081>083-090>101-250700-
SOUTHEAST KANSAS

CITY           SKY/WX    TMP DP  RH WIND       PRES   REMARKS
CHANUTE        CLOUDY    68  67  96 SE3       29.99F
6HR MIN TEMP:  68; 6HR MAX TEMP:  82; 6HR PCP:  0.31;

COFFEYVILLE    CLOUDY    71  67  87 SE6       29.98F
6HR MIN TEMP:  71; 6HR MAX TEMP:  84;

HUTCHINSON     MOCLDY    75  63  66 N9G24     29.98R
6HR MIN TEMP:  70; 6HR MAX TEMP:  86;

MEDICINE LODGE   N/A     70  66  87 SE8       29.95F
NEWTON         CLEAR     66  62  87 SE9       29.97F
PARSONS        CLOUDY    70  68  93 SE5       30.00F
6HR MIN TEMP:  69; 6HR MAX TEMP:  83; 6HR PCP:  0.33;

WICHITA INTL   PTCLDY    70  65  84 SE6       29.96F
6HR MIN TEMP:  70; 6HR MAX TEMP:  83;

WICHITA JABRA  CLEAR     68  66  93 SE7       29.96F
6HR MIN TEMP:  67; 6HR MAX TEMP:  77;

WICHITA MCCONL CLEAR     70  65  83 S7        29.97F
WINFIELD       CLEAR     70  66  87 E5        29.98F
6HR MIN TEMP:  70; 6HR MAX TEMP:  78;

$$

KSZ007>012-019>026-033>040-048>060-102>105-250700-
NORTHEAST KANSAS

CITY           SKY/WX    TMP DP  RH WIND       PRES   REMARKS
CONCORDIA      LGT RAIN  71  59  65 SW10      29.95R
6HR MIN TEMP:  71; 6HR MAX TEMP:  82; 6HR PCP: TRACE;

EMPORIA        CLOUDY    67  66  97 S12       29.98S
6HR MIN TEMP:  67; 6HR MAX TEMP:  68; 6HR PCP:  0.02;

LAWRENCE       CLOUDY    68  67  96 NE5       29.97F
6HR MIN TEMP:  67; 6HR MAX TEMP:  70; 6HR PCP:  0.03;

MANHATTAN      CLEAR     68  65  90 S3        29.94F
6HR MIN TEMP:  68; 6HR MAX TEMP:  77;

MARYSVILLE     CLEAR     66  64  94 S7        29.95S
OLATHE IND     CLOUDY    68  66  93 S8        29.98F
6HR MIN TEMP:  67; 6HR MAX TEMP:  69; 6HR PCP:  0.09;

OLATHE EXE     CLOUDY    66  65  96 SE6       29.98F
6HR MIN TEMP:  66; 6HR MAX TEMP:  67; 6HR PCP:  0.18;

SALINA         CLOUDY    70  62  76 NW10      29.98F
6HR MIN TEMP:  69; 6HR MAX TEMP:  85; 6HR PCP: TRACE;

TOPEKA BILLARD CLOUDY    68  67  96 SE5       29.96F
6HR MIN TEMP:  67; 6HR MAX TEMP:  70; 6HR PCP:  0.02;

TOPEKA FORBES  CLOUDY    69  67  93 S8        29.97F
6HR MIN TEMP:  69; 6HR MAX TEMP:  70; 6HR PCP:  0.06;

$$




USA.gov is the U.S. government's official web portal to all federal, state and local government web resources and services.